CZ-6 R/B (49023 NORAD) Tracking and Keplerian Element Data

This shows tracking and keplerian element data for the satellite.

Feedback or suggestion? Click here.




ElementValue
Catalog49023
NameCZ-6 R/B
Epoch Orbit390
Epoch Day217.56130339
Epoch Year2021
RAAN323.3403
Inclination45.0002
Eccentricity0.0174731
Argument of Perigee137.1906
Mean Anonmoly224.27
Mean Motion14.38745214
Decay Rate-1.24E-06
L11 49023U 21064F 21217.56130339 -.00000124 00000-0 10980-4 0 9994
L22 49023 45.0002 323.3403 0174731 137.1906 224.2700 14.38745214 3907

Live tracking and technical data element details for CZ-6 R/B (NORAD 49023). CZ-6 R/B can be tracked NOW for your location showing map with azimuth and elevation plus other details from your city location.

Track the satellite on the map from your city or location and see movement details for azimuth, elevation, latitude, longitude, range, height, and movement on the map or in text.







IsCatalogInMostPopularTable: catalog: 49023, numindb: 18
Update: records affected: 1



GetName: 49023 CZ-6 R/B

Hit Count: updated at: Sun, 26 Sep 2021 16:36:34 GMT